This is the latest recevied weather packets stored in our database for station/object VA3BOO. If no packets are shown the sender has not sent any weather packets the latest 10 day(s).
| Time | Temp. | Humidity | Pressure | Rain* | Wind** | Luminosity | Snow |
|---|---|---|---|---|---|---|---|
| 1776910805 | 8.89° C | 75% | 1014.3 hPa | 0 mm | - | 0 W/m² | - |
| 1776910506 | 9.44° C | 75% | 1014.3 hPa | 0 mm | - | 0 W/m² | - |
| 1776910205 | 9.44° C | 73% | 1014.1 hPa | 0 mm | - | 0 W/m² | - |
| 1776909905 | 10° C | 71% | 1014.4 hPa | 0 mm | - | 0 W/m² | - |
| 1776909606 | 9.44° C | 72% | 1014.3 hPa | 0 mm | - | 0 W/m² | - |
| 1776909306 | 9.44° C | 72% | 1014.2 hPa | 0 mm | - | 0 W/m² | - |
| 1776909005 | 9.44° C | 73% | 1014.3 hPa | 0 mm | - | 0 W/m² | - |
| 1776908706 | 9.44° C | 74% | 1014.4 hPa | 0 mm | - | 0 W/m² | - |
| 1776908405 | 9.44° C | 75% | 1014.3 hPa | 0 mm | - | 0 W/m² | - |
| 1776908106 | 10° C | 74% | 1014.2 hPa | 0 mm | - | 0 W/m² | - |
| 1776907806 | 10° C | 72% | 1014.2 hPa | 0 mm | - | 0 W/m² | - |
| 1776907505 | 10.56° C | 71% | 1014.2 hPa | 0 mm | - | 0 W/m² | - |
| 1776907205 | 11.11° C | 67% | 1014.2 hPa | 0 mm | - | 0 W/m² | - |
| 1776906905 | 11.67° C | 65% | 1014 hPa | 0 mm | - | 0 W/m² | - |
| 1776906605 | 11.11° C | 63% | 1013.7 hPa | 0 mm | - | 0 W/m² | - |
| 1776906306 | 10.56° C | 69% | 1013.8 hPa | 0 mm | - | 0 W/m² | - |
| 1776906006 | 11.11° C | 69% | 1013.8 hPa | 0 mm | - | 0 W/m² | - |
| 1776905706 | 11.11° C | 67% | 1013.8 hPa | 0 mm | - | 0 W/m² | - |
| 1776905405 | 11.67° C | 66% | 1013.8 hPa | 0 mm | - | 0 W/m² | - |
| 1776905106 | 11.67° C | 65% | 1013.5 hPa | 0 mm | - | 0 W/m² | - |
| 1776904806 | 11.67° C | 65% | 1013.5 hPa | 0 mm | - | 0 W/m² | - |
| 1776904505 | 11.67° C | 65% | 1013.4 hPa | 0 mm | - | 0 W/m² | - |
| 1776904205 | 11.67° C | 64% | 1013.4 hPa | 0 mm | - | 0 W/m² | - |
| 1776903906 | 12.22° C | 64% | 1013.3 hPa | 0 mm | - | 0 W/m² | - |
* Rain latest hour (hover to see other rain measurements)
** Current wind speed in m/s (hover to see current wind gust speed)